GEFSGL_con_cape1000_336.txt.gz
Probability
65 55 65 58 58 58 58 58 61 58 55 52 52 55 52 48 48 45 45 45 45 48 48 48 48 48 45 42 39 39 35 29 23 29 26 32 35 23 13 19 16 10 13
58 61 55 55 58 58 55 58 61 61 52 48 45 52 52 45 48 45 42 39 35 39 42 45 39 35 35 39 35 32 35 35 29 29 26 29 26 23 19 16 10 3 6
52 52 48 55 58 58 58 58 58 58 55 45 48 52 52 48 39 32 32 32 32 35 32 32 29 32 35 35 35 35 32 29 32 29 29 29 29 23 19 19 16 10 6
48 48 55 55 52 52 61 61 58 58 55 52 45 45 42 39 26 29 29 29 32 35 29 29 26 29 29 26 29 32 29 29 29 26 26 23 26 26 23 19 13 16 10
55 55 55 55 52 55 55 55 48 48 39 42 42 35 32 23 19 23 26 23 23 26 32 29 26 23 19 23 23 26 26 26 26 19 16 19 23 23 19 19 19 13 10
61 55 55 58 55 52 55 45 45 48 39 42 32 29 26 16 16 16 23 19 19 19 23 23 19 16 13 6 6 6 6 16 23 23 23 16 19 23 19 16 16 10 6
61 61 58 55 55 48 42 42 48 42 35 29 29 26 26 13 10 6 10 16 23 19 19 23 19 10 13 10 10 3 0 0 3 10 19 19 16 23 16 16 16 13 10
65 61 58 55 52 45 45 48 39 39 29 29 32 29 26 16 10 6 6 13 19 23 23 19 23 23 10 10 16 16 23 16 6 0 13 16 16 19 16 13 16 16 16
61 55 55 55 52 45 45 45 45 35 32 32 29 29 26 19 6 0 3 13 13 16 16 19 19 23 13 3 13 16 23 23 13 3 3 6 10 10 10 10 13 10 6
55 58 48 52 48 52 48 48 42 45 35 32 26 26 26 26 13 0 0 10 13 13 13 19 10 10 13 3 6 13 13 16 16 16 6 3 3 6 0 6 10 10 6
55 48 52 48 52 48 52 45 45 35 35 32 29 29 29 19 10 0 0 6 6 6 13 16 13 6 3 3 0 10 6 6 13 13 13 13 16 13 10 10 13 6 6
48 48 45 45 35 29 35 45 45 32 39 35 35 29 26 23 13 3 0 0 6 13 13 13 16 6 0 0 0 3 3 3 10 13 10 13 16 16 16 13 13 13 13
45 48 48 42 32 35 32 35 35 39 23 19 26 26 26 26 19 10 0 0 0 3 10 10 6 0 0 0 0 0 0 3 6 10 16 16 16 16 16 16 13 13 13
39 39 45 42 35 35 32 29 29 19 16 19 19 19 19 23 19 13 10 0 0 0 3 6 3 0 0 3 3 0 0 3 6 6 10 13 16 13 13 10 6 10 6
42 39 35 35 32 32 23 23 19 23 16 16 19 16 16 19 6 3 6 6 6 6 6 6 10 10 10 10 10 10 6 3 3 3 13 13 13 13 10 3 3 3 3
35 35 32 32 32 26 19 10 3 6 3 3 3 10 3 3 0 0 0 0 0 3 6 6 6 6 10 10 10 10 10 10 6 6 6 10 10 10 10 6 6 6 6
35 32 26 26 23 23 19 16 6 0 0 0 0 0 0 0 0 0 0 0 0 0 3 3 6 6 6 6 10 10 10 10 10 10 13 13 13 10 6 6 6 3 6
32 26 26 26 26 23 19 16 13 6 3 0 0 0 0 0 0 0 0 0 0 0 3 3 3 3 6 6 6 6 10 10 10 13 13 13 10 10 10 6 6 6 3
26 23 23 26 26 23 23 13 13 6 3 0 0 0 0 0 0 0 0 0 0 0 0 0 0 0 6 6 6 10 13 10 13 13 13 13 10 10 10 10 10 10 3
23 16 16 16 16 19 13 13 10 3 3 3 0 0 0 0 0 0 0 0 0 0 0 0 0 0 0 3 3 3 3 10 13 10 10 10 6 10 10 6 6 6 6
16 13 6 13 13 10 10 3 3 3 3 3 3 0 0 0 0 0 0 0 0 0 0 0 0 0 0 0 3 3 3 3 10 6 3 6 6 6 6 6 6 6 6
16 16 13 13 16 10 3 6 6 3 0 3 3 0 0 0 0 0 0 0 0 0 0 0 0 0 0 0 0 3 3 3 3 3 3 3 3 3 6 6 6 6 6
13 13 13 10 6 3 0 0 0 0 0 0 10 6 0 0 0 0 0 0 0 0 0 0 0 0 3 3 3 3 3 6 6 6 3 0 3 3 3 0 0 3 6
10 6 10 10 10 3 0 0 0 0 0 0 3 3 3 0 0 0 3 0 0 0 0 0 0 0 3 3 3 3 3 3 3 6 0 0 0 0 0 0 0 0 0
6 6 3 6 6 3 3 0 0 3 0 0 3 3 3 3 3 3 3 0 0 0 0 0 0 0 0 0 0 0 0 0 0 3 0 0 0 0 0 0 0 0 0
6 3 3 6 6 6 6 6 3 3 3 3 3 3 0 0 0 0 0 0 0 0 0 0 0 0 0 0 0 0 0 0 0 0 0 0 0 0 0 0 0 0 0

GEFSGL_con_cape1000_342.txt.gz
Probability
42 45 39 32 35 32 29 29 29 23 26 32 26 23 19 16 16 16 13 16 13 13 10 13 6 10 10 10 10 10 10 3 3 3 3 3 3 0 0 0 0 0 0
39 39 35 29 32 29 35 32 32 26 26 29 26 26 26 16 16 16 19 19 19 16 10 10 10 6 6 10 10 10 10 10 6 6 3 3 3 3 0 0 0 0 0
39 39 35 35 35 29 32 29 29 29 23 19 19 23 23 16 16 16 16 19 19 16 13 10 10 6 6 6 6 10 10 10 3 3 3 3 3 3 3 3 0 0 0
39 35 35 32 32 29 32 26 23 19 19 16 23 23 23 19 19 16 13 13 16 13 10 13 13 6 6 6 6 6 3 3 3 3 3 3 3 3 3 3 3 0 0
39 35 35 29 29 29 26 26 23 19 16 10 13 19 13 10 13 13 16 16 10 10 10 6 6 6 6 3 3 3 3 3 3 3 3 3 3 3 3 3 3 3 0
35 32 32 32 29 29 26 23 19 16 10 6 6 6 10 10 6 6 13 13 6 10 6 6 3 3 3 3 3 3 3 3 3 3 3 3 3 3 3 3 3 3 3
32 29 26 26 26 23 23 23 23 13 10 6 6 6 10 10 6 6 6 6 6 10 6 3 3 3 3 3 3 3 3 3 3 3 3 3 3 3 3 3 3 3 3
26 26 23 23 19 19 19 19 16 10 10 6 10 10 10 6 6 6 6 6 6 6 6 3 3 3 6 3 3 3 3 3 0 0 0 0 3 3 3 3 3 3 3
26 26 23 19 16 19 23 19 13 13 6 3 6 13 13 13 10 3 3 0 6 3 6 6 6 3 3 3 3 3 3 3 3 0 0 0 0 0 0 3 3 3 3
26 23 23 19 19 19 16 19 16 16 13 10 3 13 13 13 10 6 3 0 10 6 6 6 6 3 3 3 0 3 3 3 3 3 3 0 0 0 0 0 0 3 3
26 16 16 16 16 16 16 19 19 16 16 6 10 10 16 13 10 6 0 3 6 6 6 6 6 3 0 0 0 0 3 3 3 3 3 3 3 3 0 0 0 3 3
16 19 16 19 19 19 19 19 16 19 13 10 10 10 10 10 10 10 0 0 0 6 6 6 6 6 0 0 0 0 0 0 0 0 3 3 3 3 3 3 3 3 3
10 13 13 19 19 19 19 19 19 16 13 10 10 10 10 10 10 6 0 0 0 0 3 6 3 0 0 0 0 0 0 0 0 0 0 3 3 3 3 3 3 3 3
13 13 13 6 19 16 19 19 19 19 16 10 10 10 10 10 10 10 3 0 0 0 0 0 0 0 0 0 0 0 0 0 0 0 0 0 3 3 3 3 3 3 3
13 13 16 10 13 16 13 13 13 16 16 13 10 10 10 10 6 3 3 0 0 0 0 0 0 0 0 0 0 0 0 0 0 0 0 0 0 0 3 3 3 3 3
10 13 13 13 10 10 10 6 3 0 0 3 3 3 6 6 3 0 0 0 0 0 0 3 3 3 3 6 3 3 3 3 0 0 0 0 0 0 0 0 0 0 0
6 6 10 13 10 10 3 3 3 3 0 0 0 0 0 0 0 0 0 0 0 0 0 0 0 0 3 3 3 6 6 6 3 3 3 0 0 0 0 0 0 0 0
6 6 6 13 6 6 3 3 3 3 3 0 0 0 0 0 0 0 0 0 0 0 0 0 0 0 0 0 0 0 0 0 0 0 0 0 0 0 0 0 0 0 0
6 6 6 10 6 10 6 3 3 3 3 3 0 0 0 0 0 0 0 0 0 0 0 0 0 0 0 0 0 0 0 0 0 0 0 0 0 0 3 0 0 0 0
3 3 6 10 6 3 6 3 3 3 3 3 0 0 0 0 0 0 0 0 0 0 0 0 0 0 0 0 0 0 0 0 0 0 0 0 0 0 0 0 0 0 0
3 3 0 3 6 6 6 3 3 3 3 0 0 0 0 0 0 0 0 0 0 0 0 0 0 0 0 0 0 0 0 0 0 0 0 0 0 0 0 0 0 0 0
0 0 0 0 0 0 3 3 3 3 3 0 0 0 0 0 0 0 0 0 0 0 0 0 0 0 0 0 0 0 0 0 0 0 0 0 0 0 0 0 0 0 0
0 0 0 0 0 0 3 3 3 3 0 0 0 0 0 0 0 0 0 0 0 0 0 0 0 0 0 0 0 0 0 0 0 0 0 0 0 0 0 0 0 0 0
0 0 0 0 0 0 3 3 0 0 0 0 0 0 0 0 0 0 0 0 0 0 0 0 0 0 0 0 0 0 0 0 0 0 0 0 0 0 0 0 0 0 0
0 0 0 0 0 3 0 0 0 0 0 0 0 0 0 0 0 0 0 0 0 0 0 0 0 0 0 0 0 0 0 0 0 0 0 0 0 0 0 0 0 0 0
0 0 0 0 0 0 0 0 0 0 0 0 0 0 0 0 0 0 0 0 0 0 0 0 0 0 0 0 0 0 0 0 0 0 0 0 0 0 0 0 0 0 0

GEFSGL_con_cape1000_348.txt.gz
Probability
6 13 10 16 19 16 16 16 16 16 19 19 19 19 16 16 19 16 13 16 16 16 10 13 13 13 6 6 6 6 6 6 6 6 3 6 6 6 6 3 3 3 3
23 19 16 23 16 16 16 13 13 19 19 23 19 19 19 16 16 13 16 16 16 13 13 13 13 13 6 6 6 6 6 6 6 6 6 6 6 6 6 6 3 3 3
29 23 19 16 19 23 23 19 19 10 10 13 13 16 13 13 10 6 16 16 16 13 13 13 13 6 6 6 6 6 6 6 6 3 6 3 6 6 6 6 6 6 0
23 23 16 13 16 19 19 16 13 13 13 10 10 10 10 13 10 10 10 13 16 13 16 16 13 6 6 6 6 6 3 3 3 3 3 3 3 3 3 3 6 6 6
19 23 23 13 13 23 16 13 13 16 16 10 10 10 10 10 10 6 10 10 10 10 6 13 10 6 6 6 3 3 3 3 3 3 3 3 3 3 3 3 3 6 6
16 23 16 16 16 19 13 16 13 13 13 13 10 13 10 10 3 3 6 10 10 10 10 3 3 3 6 0 0 3 3 3 3 3 3 3 3 3 3 3 3 3 3
19 19 19 19 19 16 19 16 13 16 13 13 10 13 13 10 3 3 3 3 10 10 6 3 3 3 0 3 3 3 0 0 0 3 3 3 3 3 3 3 3 3 3
16 19 23 19 19 13 16 16 16 16 16 16 10 10 13 6 3 3 3 3 3 3 6 3 3 6 0 3 3 3 3 3 0 0 3 3 3 3 3 3 3 3 3
16 23 13 13 13 10 10 13 13 10 13 16 13 13 10 10 3 3 3 3 3 3 3 3 3 3 0 0 0 3 3 3 3 0 0 0 0 0 0 0 3 3 3
16 19 16 13 16 13 13 16 16 16 16 19 13 3 6 6 3 3 0 0 3 3 6 6 0 0 0 0 0 3 3 3 3 3 0 0 0 0 0 0 0 3 3
13 16 13 13 16 13 13 13 16 16 13 13 10 10 10 13 3 3 0 0 0 0 6 6 3 0 0 0 0 0 0 0 3 3 3 3 3 3 3 0 0 0 3
13 13 10 10 6 13 13 13 13 13 13 13 13 13 10 6 3 3 0 0 0 3 6 6 3 0 0 0 0 0 0 0 0 0 0 0 0 3 3 3 3 0 0
13 10 10 6 6 6 10 10 13 16 16 16 16 13 13 6 6 3 0 0 0 0 6 3 0 0 0 0 0 0 0 0 0 0 0 0 0 0 0 3 3 3 3
6 10 10 6 6 6 6 10 13 13 16 16 16 16 10 10 6 6 6 3 0 0 0 0 0 0 0 0 0 0 0 0 0 0 0 0 0 0 0 0 0 3 3
3 6 10 6 6 6 6 3 6 6 10 10 13 13 13 10 10 3 6 6 3 0 0 0 0 0 0 0 0 0 0 0 0 0 0 0 0 0 0 0 0 0 3
3 3 3 6 3 6 6 6 3 3 3 0 0 10 10 6 3 0 0 0 0 0 0 0 0 0 0 0 0 0 0 0 0 0 0 0 0 0 0 0 0 0 0
3 3 3 0 0 0 6 6 6 3 0 0 0 0 0 0 0 0 0 0 0 0 0 0 0 0 0 0 0 0 0 0 0 0 0 0 0 0 0 0 0 0 0
3 3 6 3 3 0 0 0 3 3 3 3 0 0 0 0 0 0 0 0 0 0 0 0 0 0 0 0 0 0 0 0 0 0 0 0 0 0 0 0 0 0 0
3 3 6 3 3 6 3 0 0 0 0 3 3 3 0 0 0 0 0 0 0 0 0 0 0 0 0 0 0 0 0 0 0 0 0 0 0 0 0 0 0 0 0
3 3 3 0 3 3 0 0 0 0 0 0 3 3 0 0 0 0 0 0 0 0 0 0 0 0 0 0 0 0 0 0 0 0 0 0 0 0 0 0 0 0 0
3 3 0 0 0 0 0 0 0 0 0 0 0 3 0 0 0 0 0 0 0 0 0 0 0 0 0 0 0 0 0 0 0 0 0 0 0 0 0 0 0 0 0
3 3 3 0 0 0 0 0 0 0 0 0 0 0 0 0 0 0 0 0 0 0 0 0 0 0 0 0 0 0 0 0 0 0 0 0 0 0 0 0 0 0 0
3 3 0 0 0 0 0 0 0 0 0 0 0 0 0 0 0 0 0 0 0 0 0 0 0 0 0 0 0 0 0 0 0 0 0 0 0 0 0 0 0 0 0
3 3 0 0 0 0 0 0 0 0 0 0 0 0 0 0 0 0 0 0 0 0 0 0 0 0 0 0 0 0 0 0 0 0 0 0 0 0 0 0 0 0 0
3 3 3 0 0 0 0 0 0 0 0 0 0 0 0 0 0 0 0 0 0 0 0 0 0 0 0 0 0 0 0 0 0 0 0 0 0 0 0 0 0 0 0
3 3 3 0 0 0 0 0 0 0 0 0 0 0 0 0 0 0 0 0 0 0 0 0 0 0 0 0 0 0 0 0 0 0 0 0 0 0 0 0 0 0 0

GEFSGL_con_cape1000_354.txt.gz
Probability
58 55 55 52 52 52 52 48 52 52 52 52 48 42 42 42 35 39 39 39 39 42 39 35 32 29 23 19 19 26 23 29 23 19 23 19 23 19 16 19 19 19 13
55 52 48 52 52 52 52 52 52 48 48 48 45 45 39 35 42 42 39 39 39 39 42 35 29 26 29 26 23 29 26 26 29 29 26 23 23 23 23 23 16 10 16
48 52 55 48 45 42 45 42 42 42 42 39 39 39 39 39 39 39 39 39 42 39 39 39 35 32 32 29 32 26 26 26 26 29 26 23 23 23 23 19 13 23 10
48 52 52 52 48 35 42 42 42 42 45 35 35 35 35 35 35 35 35 35 35 35 35 42 35 35 35 35 29 32 29 29 26 29 26 23 19 16 19 23 16 16 13
45 52 48 48 48 52 48 39 39 39 39 35 35 32 35 32 32 32 32 32 32 35 35 39 42 32 29 29 23 26 26 29 29 29 23 19 13 19 16 23 13 16 16
42 45 42 48 52 52 52 52 45 35 39 39 35 35 32 23 13 10 19 29 32 32 39 39 39 29 13 3 0 0 16 23 26 29 23 23 23 16 23 13 16 16 10
45 35 42 45 45 48 48 52 52 42 39 39 39 32 29 26 10 6 3 19 29 39 32 35 32 23 16 32 10 0 0 0 0 29 26 26 23 19 19 19 19 16 19
45 42 42 42 39 39 42 48 45 45 42 48 42 35 35 23 10 6 3 13 26 23 32 35 35 35 19 26 26 23 26 16 6 6 16 16 10 13 13 16 19 19 19
42 42 39 39 39 35 35 45 45 45 45 42 42 39 35 26 10 6 0 19 26 26 26 32 32 29 13 3 13 19 23 26 6 0 0 0 3 0 6 10 13 16 10
39 39 39 42 42 42 45 42 42 42 39 39 35 35 32 32 16 6 0 23 29 29 29 32 16 16 10 0 13 19 23 23 19 13 3 0 0 3 0 10 13 16 13
32 35 35 39 35 39 35 35 35 35 35 39 35 32 35 29 19 3 0 19 26 29 26 23 23 6 0 0 0 13 16 16 26 26 19 13 16 13 10 10 13 13 10
32 32 32 26 29 23 26 32 29 29 32 32 32 29 35 26 16 13 0 0 10 19 26 26 16 6 0 0 0 0 0 0 16 19 13 13 16 10 13 13 13 13 13
32 32 26 23 19 19 19 29 32 29 29 23 29 26 23 19 16 6 0 0 0 10 19 16 6 0 0 0 0 0 0 0 10 10 6 3 10 13 16 16 16 19 16
32 26 23 19 16 16 23 19 19 23 23 29 32 29 29 29 23 19 13 6 0 0 13 3 0 0 0 0 3 0 0 6 6 10 6 3 0 0 10 10 13 13 13
26 19 16 19 16 19 16 16 16 16 16 16 16 23 26 29 19 13 23 23 19 16 13 16 16 6 6 6 6 6 6 0 0 0 3 3 0 0 3 3 3 3 3
26 19 19 13 16 16 13 13 6 6 6 3 6 6 10 6 6 3 6 6 3 3 6 16 19 19 6 6 6 6 6 6 3 0 3 0 0 3 3 3 3 3 3
19 16 16 19 16 13 10 10 6 3 3 3 0 0 0 0 0 0 0 0 0 0 3 6 13 10 6 3 3 3 3 3 3 0 3 3 0 3 3 3 3 3 3
10 6 10 13 10 6 6 6 3 3 6 6 0 0 0 0 0 0 0 0 0 0 6 10 6 10 6 3 3 3 0 3 3 3 0 3 3 3 3 3 6 6 3
10 10 3 3 3 3 3 3 3 3 3 6 13 3 0 0 0 0 0 0 3 3 6 6 3 3 6 6 3 0 0 0 3 3 3 3 3 3 3 3 0 0 0
6 3 3 3 3 3 6 6 6 6 6 6 6 10 3 3 3 3 0 0 3 3 3 3 3 3 3 3 0 0 3 3 3 3 3 3 3 3 0 0 0 0 0
6 3 3 3 3 3 3 3 3 3 3 6 10 3 0 0 3 3 3 3 3 3 3 3 3 3 0 0 0 0 0 3 0 0 0 0 0 0 0 0 0 0 0
6 6 3 3 3 3 3 3 6 6 10 10 10 3 0 0 0 3 6 6 3 3 3 6 6 3 3 0 0 0 0 0 0 0 0 0 0 0 0 0 0 0 0
3 3 3 3 3 3 3 3 3 6 6 6 3 3 0 0 3 3 3 6 6 6 6 3 0 0 0 0 0 0 0 0 0 0 0 0 0 0 0 0 0 0 0
3 3 3 3 3 3 3 3 3 3 3 3 3 3 3 0 0 3 3 3 3 3 3 3 0 0 0 0 0 0 0 0 0 3 0 0 0 0 0 0 0 0 0
0 3 3 3 3 3 3 3 3 3 3 3 6 3 3 0 0 0 0 3 3 3 3 0 0 0 0 0 0 3 0 0 0 0 3 0 0 0 0 0 0 0 0
0 3 3 6 3 6 6 6 6 6 6 3 6 6 3 0 0 0 0 3 3 3 3 3 3 3 3 0 0 0 0 0 0 0 0 0 0 0 0 0 0 0 0

GEFSGL_con_cape1000_360.txt.gz
Probability
61 52 65 61 65 65 58 55 58 61 58 55 55 52 52 48 52 48 48 45 48 45 42 39 39 39 48 48 42 42 35 26 19 23 26 29 26 26 16 16 13 13 10
58 55 55 55 58 61 58 55 52 55 55 52 52 48 45 45 45 48 45 45 45 42 42 39 32 35 39 45 42 42 45 39 32 23 29 29 32 26 19 23 10 6 10
58 55 55 52 55 55 61 52 52 55 55 45 45 45 42 42 42 45 45 45 42 39 42 42 39 35 39 42 42 39 42 29 35 32 23 29 32 32 23 16 13 19 10
58 55 55 55 55 58 52 58 52 52 45 45 45 42 42 42 42 42 45 35 35 35 39 39 39 35 35 35 39 39 42 39 32 29 29 32 32 29 26 26 26 19 16
58 58 61 55 58 55 61 65 61 48 39 48 48 45 42 35 35 35 35 35 35 29 29 35 29 26 26 29 26 29 29 29 39 29 29 26 23 23 23 29 19 23 19
58 52 52 55 52 55 52 61 58 48 48 52 52 52 42 32 29 19 23 32 32 32 29 32 29 29 19 6 6 6 16 23 26 35 26 16 23 23 29 19 16 16 13
55 55 58 55 48 52 42 48 52 52 48 45 52 48 39 32 23 10 3 23 29 32 29 29 29 26 23 19 13 6 3 0 0 19 23 26 29 35 32 23 23 10 10
58 58 55 52 48 55 55 55 48 45 48 52 48 48 45 35 16 6 3 6 23 29 29 26 32 29 26 29 23 19 26 13 3 3 6 16 16 23 23 26 23 19 26
55 55 55 52 48 52 52 55 48 48 48 52 55 55 45 35 16 6 0 16 19 32 29 29 26 29 23 13 19 26 19 26 6 3 3 3 3 0 10 10 10 10 6
55 55 52 52 52 48 52 52 48 45 42 42 48 55 48 45 23 10 0 16 23 19 29 35 23 19 16 10 16 16 19 23 13 10 0 0 0 0 0 6 10 6 6
48 45 45 48 48 48 48 52 45 42 42 42 45 48 48 45 26 6 3 16 23 23 23 32 32 10 6 0 6 13 13 13 10 13 13 13 3 0 0 0 10 10 10
42 45 42 45 42 32 48 45 39 42 45 45 42 48 42 45 23 13 0 0 16 26 23 26 23 10 0 0 0 6 6 0 10 10 13 13 13 10 10 10 6 10 13
45 45 42 42 42 42 39 39 42 42 32 32 35 39 42 39 35 10 0 0 0 13 23 23 19 10 0 0 0 0 0 3 10 10 10 13 13 10 13 16 23 13 13
45 48 48 42 39 39 42 26 23 19 23 23 23 23 23 32 32 23 13 3 0 0 3 13 0 0 0 3 0 0 0 10 10 10 6 6 13 13 13 13 13 10 10
45 45 45 35 32 35 29 26 23 23 19 19 19 19 16 16 16 13 13 10 10 6 6 16 16 13 13 10 10 6 6 10 6 10 6 10 6 6 6 10 10 6 10
42 39 35 26 29 23 23 19 6 6 6 6 10 10 13 6 6 3 3 3 3 3 3 10 16 19 16 13 13 13 6 6 3 3 6 10 6 6 3 6 6 6 6
42 32 26 16 13 13 13 10 10 6 6 6 6 6 6 3 0 0 0 0 0 0 3 13 13 16 16 10 10 6 6 6 3 6 6 3 0 3 6 3 3 3 6
26 16 19 19 6 6 10 6 6 6 6 10 6 0 0 0 0 0 0 0 0 0 3 10 13 16 13 10 6 6 6 6 6 3 0 0 0 0 3 3 6 6 6
23 13 10 10 0 0 3 3 3 3 6 10 13 6 0 0 0 0 0 0 3 3 6 10 10 10 10 10 6 6 3 3 0 0 0 3 0 0 0 0 3 0 0
19 6 10 3 0 0 3 3 3 3 3 3 6 3 0 0 3 0 0 3 0 6 6 6 6 6 6 6 6 3 3 0 0 0 0 0 0 0 0 3 0 0 3
10 3 0 0 0 0 3 3 3 3 6 6 3 3 0 3 3 6 3 3 3 3 3 3 6 6 6 10 6 3 3 0 0 0 0 0 0 0 0 0 0 0 0
6 0 0 0 3 3 0 3 3 3 3 6 3 3 0 0 3 0 0 3 3 3 3 6 6 6 6 10 10 6 3 0 0 0 0 0 0 0 0 0 0 0 0
3 0 0 0 0 0 0 0 0 3 3 6 3 3 0 0 0 0 0 0 3 3 3 6 3 3 6 10 10 6 0 0 0 0 0 0 0 0 0 0 0 0 0
3 0 0 0 0 0 0 0 0 0 3 3 3 6 0 0 0 0 0 3 3 6 6 6 6 3 10 10 10 10 3 0 0 3 6 3 3 0 0 0 0 0 0
3 3 0 0 0 0 0 0 0 0 0 0 3 6 6 3 3 3 0 3 3 3 3 6 6 10 10 6 6 3 0 0 0 0 3 3 3 3 0 0 0 0 0
6 3 0 3 0 0 0 0 0 0 0 0 0 3 6 3 3 3 3 3 3 0 0 0 3 6 6 6 3 0 0 0 0 0 0 3 3 3 3 0 0 0 0